Location: Newark
(45.4422°N, 16.2769°E)
Time: 14:15:33
(UTC+00:00)

Tiros 1 despin weight - Pass Details

Date: 19 December 2019
Orbit: 594 x 642 km, 48.2° (Epoch: 24 January)

Event Time Altitude Azimuth Distance (km) Brightness Sun altitude
Rises 07:19:53 0° 283° (WNW) 2,862 ? 6.0°
Reaches altitude 10° 07:22:52 10° 263° (W) 1,945 ? 6.4°
Maximum altitude 07:25:42 17° 224° (SW) 1,544 ? 6.8°
Drops below altitude 10° 07:28:30 10° 184° (S) 1,924 ? 7.1°
Sets 07:31:27 0° 163° (SSE) 2,816 ? 7.5°
